Location: Newark
(56.0692°N, 115.8617°E)
Time: 22:25:36
(UTC+00:00)

Tiros 1 - All Passes

Search period start: 25 May 2020 00:00
Search period end: 04 June 2020 00:00
Orbit: 630 x 664 km, 48.4° (Epoch: 24 May)

Date Brightness Start Highest point End Pass type
(mag) Time Alt. Az. Time Alt. Az. Time Alt. Az.
25 May - 07:11:08 10° S 07:13:55 16° SSE 07:16:43 10° ESE daylight
25 May - 08:51:07 10° SW 08:55:09 29° S 08:59:11 10° ESE daylight
25 May - 10:32:34 10° WSW 10:36:38 30° S 10:40:41 10° SE daylight
25 May - 12:14:52 10° WSW 12:17:54 17° SSW 12:20:56 10° SSE daylight
26 May - 07:35:49 10° SSW 07:39:28 23° SSE 07:43:07 10° ESE daylight
26 May - 09:16:43 10° WSW 09:20:52 32° S 09:25:00 10° ESE daylight
26 May - 10:58:31 10° WSW 11:02:18 25° SSW 11:06:04 10° SE daylight
26 May - 12:42:19 10° SW 12:43:20 11° SW 12:44:21 10° SSW daylight
27 May - 06:21:13 10° S 06:23:54 15° SSE 06:26:34 10° ESE daylight
27 May - 08:01:05 10° SW 08:05:07 29° SSE 08:09:07 10° ESE daylight
27 May - 09:42:29 10° WSW 09:46:35 31° S 09:50:39 10° SE daylight
27 May - 11:24:44 10° WSW 11:27:53 18° SSW 11:31:01 10° SSE daylight
28 May - 06:45:49 10° SSW 06:49:26 22° SSE 06:53:01 10° ESE daylight
28 May - 08:26:39 10° WSW 08:30:49 32° S 08:34:58 10° ESE daylight
28 May - 10:08:25 10° WSW 10:12:16 26° SSW 10:16:05 10° SE daylight
28 May - 11:51:51 10° SW 11:53:19 11° SW 11:54:47 10° SSW daylight
29 May - 05:31:20 10° S 05:33:52 14° SSE 05:36:25 10° ESE daylight
29 May - 07:11:03 10° SW 07:15:04 28° SSE 07:19:04 10° ESE daylight
29 May - 08:52:24 10° WSW 08:56:32 31° S 09:00:38 10° SE daylight
29 May - 10:34:35 10° WSW 10:37:51 19° SSW 10:41:05 10° SSE daylight
30 May - 05:55:49 10° SSW 05:59:23 21° SSE 06:02:56 10° ESE daylight
30 May - 07:36:35 10° WSW 07:40:46 32° S 07:44:55 10° ESE daylight
30 May - 09:18:19 10° WSW 09:22:13 26° SSW 09:26:05 10° SE daylight
30 May - 11:01:31 10° WSW 11:03:19 12° SW 11:05:06 10° SSW daylight
31 May - 04:41:28 10° S 04:43:50 14° SSE 04:46:13 10° ESE daylight
31 May - 06:21:00 10° SW 06:25:01 28° SSE 06:29:00 10° ESE daylight
31 May - 08:02:20 10° WSW 08:06:29 32° S 08:10:36 10° SE daylight
31 May - 09:44:27 10° WSW 09:47:49 20° SSW 09:51:09 10° SSE daylight
01 Jun - 05:05:50 10° SSW 05:09:21 21° SSE 05:12:50 10° ESE daylight
01 Jun - 06:46:32 10° WSW 06:50:43 32° S 06:54:52 10° ESE daylight
01 Jun - 08:28:13 10° WSW 08:32:10 27° SSW 08:36:05 10° SE daylight
01 Jun - 10:11:13 10° WSW 10:13:18 13° SW 10:15:22 10° S daylight
02 Jun - 03:51:37 10° S 03:53:49 13° SE 03:56:01 10° ESE daylight
02 Jun - 05:30:58 10° SW 05:34:58 27° SSE 05:38:56 10° ESE daylight
02 Jun - 07:12:15 10° WSW 07:16:26 32° S 07:20:35 10° ESE daylight
02 Jun - 08:54:20 10° WSW 08:57:47 21° SSW 09:01:13 10° SSE daylight
03 Jun - 04:15:51 10° SSW 04:19:18 20° SSE 04:22:44 10° ESE daylight
03 Jun - 05:56:28 10° WSW 06:00:39 32° S 06:04:49 10° ESE daylight
03 Jun - 07:38:07 10° WSW 07:42:08 28° SSW 07:46:05 10° SE daylight
03 Jun - 09:20:58 10° WSW 09:23:16 14° SW 09:25:34 10° S daylight
